User: anonymous   Login
Location: Newark
(13.6797°N, 8.5297°E)
Time: 04:11:54
(UTC+00:00)
Language:

Vanguard 2 - Orbit

View from above orbital plane
View from above orbital plane
View from above satellite
View from above satellite

Ground track
Ground track

The orbit data is extracted from the following two-line orbital elements,

1    11U 59001A   20019.83060955  .00000245  00000-0  12931-3 0  9995
2    11  32.8651 257.1711 1468070 126.8238 247.6203 11.85657835598969
Epoch (UTC): 19 January 2020 19:56:04
Eccentricity: 0.1468070
inclination: 32.8651°
perigee height: 553 km
apogee height: 2938 km
right ascension of ascending node: 257.1711°
argument of perigee: 126.8238°
revolutions per day: 11.85657835
mean anomaly at epoch: 247.6203°
orbit number at epoch: 59896

The dashed part of the orbit path shows where the satellite is in the earth's shadow,  

DLR